Regional Weather Roundup
Issued by NWS

Home | Current Version | Previous Version | Text Only | Print | Product List | Glossary Off
Versions: 1 2 3 4 5 6 7 8 9 10 11 12 13 14 15 16 17 18 19 20 21 22 23 24 25 26 27 28 29 30 31 32 33 34 35 36 37 38 39 40 41 42 43 44 45 46 47 48 49 50

000
ASUS43 KMKX 071111
RWRWI

WISCONSIN REGIONAL WEATHER ROUNDUP
NATIONAL WEATHER SERVICE MILWAUKEE/SULLIVAN WI
500 AM CST WED DEC 07 2016

NOTE: "FAIR" INDICATES FEW OR NO CLOUDS BELOW 12,000 FEET WITH NO
SIGNIFICANT WEATHER AND/OR OBSTRUCTIONS TO VISIBILITY.

WIZ001-002-006>008-014>016-023>028-071200-
NORTHWEST WISCONSIN

CITY           SKY/WX    TMP DP  RH WIND       PRES   REMARKS
SUPERIOR ARPT  CLOUDY    20  12  69 W21G29    29.72R WCI   4
ASHLAND        CLOUDY    20  12  71 SW17G30   29.69R WCI   5
HAYWARD        LGT SNOW  18  11  74 SW17G23   29.74R WCI   3
SIREN          FLURRIES  17  10  75 W12G24    29.82R WCI   4
CUMBERLAND     FLURRIES  18  10  73 W18G31    29.81R WCI   2
RICE LAKE      FLURRIES  18  11  75 SW17G26   29.84R WCI   3
CHETEK         FLURRIES  18  11  75 MISG      29.84R
LADYSMITH      FLURRIES  19  14  81 SW16G23   29.79S WCI   4
EAU CLAIRE     FLURRIES  17  10  74 SW14G31   29.89R WCI   3
MENOMONIE      FLURRIES  18  12  77 SW20G29   29.91R WCI   2
NEW RICHMOND   FLURRIES  18  10  72 W18G24    29.89R WCI   2
OSCEOLA        FLURRIES  18  11  74 SW15G30   29.93R WCI   4
$$

WIZ003>005-009-010-017-018-071200-
NORTH CENTRAL WISCONSIN

CITY           SKY/WX    TMP DP  RH WIND       PRES   REMARKS
MANITOWISH WTR FLURRIES  17  13  86 SW10G21   29.67R WCI   4
ARBOR VITAE    FLURRIES  19  14  81 SW12G20   29.69R WCI   7
WOODRUFF       FLURRIES  19  14  81 SW12G20   29.69R WCI   7
RHINELANDER    LGT SNOW  17  12  80 W17G29    29.72R WCI   1
EAGLE RIVER    LGT SNOW  17  12  79 SW20      29.68R WCI   1
LAND O LAKES   LGT SNOW  19  13  80 SW14G22   29.67R WCI   5
PHILLIPS       LGT SNOW  17  13  86 SW15      29.72R WCI   2
TOMAHAWK       LGT SNOW  16  11  82 SW10G17   29.75R WCI   3
MEDFORD        LGT SNOW  15  10  81 SW17G25   29.79R WCI  -1
MERRILL        LGT SNOW  17  12  83 SW18G24   29.79S WCI   0
$$

WIZ029-030-035-036-043>047-071200-
CENTRAL WISCONSIN

CITY           SKY/WX    TMP DP  RH WIND       PRES   REMARKS
WAUSAU         FLURRIES  18  12  77 W18G24    29.81R WCI   2
MOSINEE        CLOUDY    18  14  86 SW18G25   29.83R WCI   2
MARSHFIELD     CLOUDY    17  10  74 W20G28    29.83R WCI   1
STEVENS POINT  CLOUDY    17  11  77 W10G23    29.85S WCI   5
WAUPACA        MOCLDY    23  15  71 SW14G25   29.87S WCI  11
WAUTOMA        PTCLDY    19  13  77 SW14      29.90R WCI   6
WISC RAPIDS    CLEAR     18  12  77 W10       29.88S WCI   6
CAMP DOUGLAS   CLEAR     18  11  76 SW14      29.92S WCI   4
$$

WIZ011>013-019>022-031-037>040-048>050-071200-
NORTHEAST WISCONSIN

CITY           SKY/WX    TMP DP  RH WIND       PRES   REMARKS
ANTIGO         FLURRIES  16  13  85 SW16      29.76S WCI   1
SHAWANO        CLOUDY    24  15  68 W17G26    29.84R WCI  10
OCONTO         CLOUDY    24  15  68 W13       29.82R WCI  12
STURGEON BAY   CLOUDY    25  17  72 SW20G26   29.81R WCI  11
GREEN BAY      CLOUDY    25  17  72 W15G23    29.86R WCI  13
MANITOWOC      CLOUDY    25  17  72 W18G24    29.87R WCI  11
APPLETON       NOT AVBL
CLINTONVILLE   CLOUDY    23  14  68 W13G22    29.85S WCI  11
OSHKOSH        CLEAR     21  13  71 W12G21    29.89R WCI   9
$$

WIZ032>034-041-042-053>061-071200-
SOUTHWEST WISCONSIN

CITY           SKY/WX    TMP DP  RH WIND       PRES   REMARKS
LA CROSSE      CLOUDY    19  10  68 W9        30.00R WCI   8
SPARTA         MOCLDY    18  12  78 SW10G17   29.95S WCI   6
VIROQUA        MOCLDY    15  10  82 W21       29.96R WCI  -3
BOSCOBEL       CLOUDY    21  12  68 W10       30.04R WCI  10
PRAIRIE DU CHI CLOUDY    19  10  67 W9        30.07R WCI   8
PLATTEVILLE    CLOUDY    20  16  84 W16G24    30.03S WCI   6
$$

WIZ056-057-062-063-064-067-068-071200-
SOUTH CENTRAL WISCONSIN

CITY           SKY/WX    TMP DP  RH WIND       PRES   REMARKS
REEDSBURG      CLOUDY    19  14  79 SW9       29.96S WCI   8
BARABOO/DELLS  PTCLDY    19  13  76 W15       29.94S WCI   5
LONE ROCK      MOCLDY    20  12  71 W16G24    30.02R WCI   6
MINERAL POINT  CLOUDY    21  16  79 W16G26    29.99S WCI   7
MADISON        CLOUDY    21  14  74 W8        29.98R WCI  11
MIDDLETON      NOT AVBL
WATERTOWN      MOCLDY    21  15  80 SW15G24   29.96R WCI   7
MONROE         CLOUDY    21  16  79 W22G30    30.00R WCI   5
JANESVILLE     PTCLDY    23  18  80 W12G22    30.01R WCI  12
$$

WIZ051-052-058>065-066-070>072-071200-
SOUTHEAST WISCONSIN

CITY           SKY/WX    TMP DP  RH WIND       PRES   REMARKS
MILWAUKEE      CLEAR     25  15  66 W16G23    29.96R WCI  12
WAUKESHA       PTCLDY    21  14  73 SW16G28   29.96R WCI   7
MILWAUKEE/TIMM CLEAR     23  14  68 W16G24    29.96R WCI  10
RACINE         CLEAR     24  15  68 W13G20    29.99R WCI  12
BURLINGTON     CLEAR     22  16  76 W16G25    30.00R WCI   8
KENOSHA        CLEAR     24  16  71 W21G30    29.98R WCI   9
FOND DU LAC    CLEAR     22  13  68 SW16G22   29.91R WCI   8
SHEBOYGAN      CLEAR     23  15  71 W24G30    29.89R WCI   7
WEST BEND      MOCLDY    21  18  86 W10G18    29.92R WCI  10
JUNEAU         CLEAR     20  15  80 SW20G25   29.96R WCI   4
$$

LSZ147-162-071200-
LAKE SUPERIOR

STATION/POSITION TIME  TEMP    WIND        PRES    WAVE
                       AIR SEA DIR/SP/G            HT/PER
                 (UTC) (F)     (DEG/KT/KT) (MB)    (FT/S)
DEVILS ISLAND    1100   26     250/ 31/ 38 1003.8R
PORT WING        1040   22     230/ 16/ 23 1005.8R
SAXON HARBOR     1030   22     220/  9/ 20 1005.8R
$$

LMZ867-665-643>646-071200-
LAKE MICHIGAN

STATION/POSITION TIME  TEMP    WIND        PRES    WAVE
                       AIR SEA DIR/SP/G            HT/PER
                 (UTC) (F)     (DEG/KT/KT) (MB)    (FT/S)
CHAMBERS ISLAND  1040   26     230/ 11/ 20 1008.1R
NORTHPORT PIER   1042   27     260/ 10/ 22 1008.1S
SISTER BAY       1038   28     300/ 23/ 27   N/A
ALGOMA LAKESHORE 1021          280/ 19/ 26   N/A
KEWAUNEE LAKESHO 1048   25     340/ 20/ 24 1009.8R
SHEBOYGAN LAKESH 1100   24     250/ 19/ 23 1013.0R
PORT WASHINGTON  1100   24     260/ 14/ 24 1014.6
MILWAUKEE LAKESH 1050   24     260/ 17/ 23   N/A
KENOSHA   LAKESH 1100   25     260/ 17/ 25 1015.9
$$

TC  - TEMPERATURE IN CELSIUS
VSB - VISIBILITY IN STATUTE MILES
WCI - WIND CHILL INDEX
HX  - HEAT INDEX





USA.gov is the U.S. government's official web portal to all federal, state and local government web resources and services.